Weather in Klaipeda

Lithuania     55˚42′18″N   21˚08′57″E
temp.,
°C
wind,
m/s
gust,
m/s
humid.,
%
clouds,
%
prec.,
mm/h
press.,
hPa
HPBL,
m
3 december, thu
thu323:00−2˚se6108085 0.0 1023491
02:00−2˚se6108892 0.0 1021454
05:00−2˚se6109093 0.0 1019451
08:00−2˚se7108895 0.0 1017491
11:00−2˚se81182100 0.0 1017598
14:00−1˚se8127689 0.0 1015615
17:00−1˚se81478100 0.1 1013557
20:00se101679100 0.3 1012656
4 december, fri
fri423:00+1˚sse101688100 0.8 1010756
02:00+2˚sse101685100 1.9 1010716
05:00+2˚se91586100 0.1 1008636
08:00+2˚se91686100 0.4 1008609
11:00+3˚se91784100 0.4 1007707
14:00+4˚se10178299 0.5 1007718
17:00+3˚se10178797 0.0 1007675
20:00+2˚se9188782 0.0 1007636
5 december, sat
sat523:00+3˚se9178968 0.0 1008658
02:00+4˚se10188784 0.0 1008583
05:00+5˚se91789100 0.0 1009550
08:00+5˚se10188999 0.0 1010568
11:00+6˚se101888100 0.0 1011704
14:00+8˚se10188483 0.0 1012703
17:00+7˚se11208691 0.0 1012591
20:00+7˚se10198692 0.0 1013689
6 december, sun
sun623:00+7˚se101886100 0.0 1014667
02:00+7˚se101885100 0.0 1014657
05:00+6˚se111984100 0.0 1014642
08:00+6˚se111883100 0.0 1015648
11:00+6˚se111880100 0.0 1016671
14:00+6˚se111777100 0.0 1016670
17:00+4˚se10177999 0.0 1016655
20:00+3˚se10177975 0.0 1017690
7 december, mon
mon723:00+2˚se10187693 0.0 1017706
02:00+1˚se10177696 0.0 1017754
05:00+1˚se91778100 0.0 1016723
08:00+1˚se101676100 0.0 1016851
11:00+2˚se101673100 0.0 1016878
14:00+2˚se101570100 0.0 1016802
17:00+1˚se91673100 0.0 1016740
20:00+2˚se91671100 0.0 1017634